[[{"header":{"parameterUnit":"m.s-1","parameterCategory":1,"la1":30.2991,"la2":30.254,"lo1":-89.0895,"lo2":-89.0444,"dy":0.0017,"dx":0.0017,"nx":28,"ny":28,"refTime":"2024-07-03T21:00:00:Z","depth":0,"parameterNumber":2,"parameterNumberName":"U-component_of_WINDS"},"data":[0,0,0,0,0,0,0,0,0,0,0,0,0,0,0,0,0,0,0,0,0,0,0,0,0,0,0,0,0,0,0,0,0,0,0,0,0,0,0,0,0,0,0,0,0,0,0,0,0,0,0,0,0,0,0,0,0,0,1.0629,1.0631,0,1.0742,1.0743,1.0745,1.0808,1.0809,1.0809,1.0809,1.0926,1.0929,1.0932,0,0,0,0,0,0,0,0,0,0,0,0,0,1.047,1.0473,1.0629,1.0631,1.0632,1.0742,1.0743,1.0745,1.0808,1.0809,1.0809,1.0809,1.0925,1.0929,1.0932,0,0,0,0,0,0,0,0,0,0,0,0,0,1.0557,1.0473,1.0629,1.0677,1.0682,1.0742,1.0743,1.0745,1.0808,1.0809,1.0809,1.0809,1.0924,1.0929,1.0933,1.0954,0,0,1.0946,1.0948,0,0,0,0,0,0,0,0,1.0552,1.0562,1.0669,1.0674,1.068,1.0761,1.073,1.0815,1.0808,1.0761,1.0809,1.0809,1.0871,1.088,1.0901,1.0959,1.0964,1.0947,1.0949,1.0951,1.0952,0,0,0,0,0,0,0,1.0546,1.0558,1.0674,1.067,1.0677,1.0693,1.0706,1.0747,1.0813,1.0765,1.077,1.0782,1.0875,1.0896,1.0904,1.0966,1.0947,1.095,1.0953,1.0955,1.1047,1.1046,0,0,0,0,0,0,1.0532,1.0552,1.067,1.0677,1.0615,1.0696,1.071,1.0735,1.0813,1.0825,1.0782,1.0784,1.0889,1.0899,1.0908,1.0937,1.0951,1.0955,1.0958,1.1047,1.1046,1.1046,0,0,0,0,0,0,1.0528,1.0542,1.0666,1.0616,1.0633,1.0698,1.0726,1.0737,1.0759,1.0825,1.0838,1.0791,1.0889,1.0902,1.0942,1.0942,1.0957,1.0961,1.1047,1.1047,1.1046,1.0996,0,0,0,0,0,0,1.0523,1.054,1.0548,1.0616,1.0636,1.0697,1.0726,1.0739,1.0766,1.0771,1.0838,1.0849,1.089,1.0935,1.0946,1.0949,1.0965,1.1047,1.1047,1.1046,1.0998,1.0994,1.099,0,0,0,0,0,1.0517,1.053,1.0548,1.0562,1.0648,1.0697,1.0708,1.0755,1.0766,1.0775,1.0817,1.0847,1.094,1.0938,1.0951,1.0955,1.1047,1.1047,1.1046,1.0999,1.0994,1.099,0,0,0,0,0,0,1.0462,1.054,1.0561,1.0596,1.0639,1.0707,1.0721,1.0748,1.079,1.0793,1.0849,1.0864,1.0898,1.0931,1.0927,1.0979,1.0997,1.0999,1.0957,1.0953,1.0949,1.094,1.0968,0,0,0,0,0,1.0454,1.0487,1.0553,1.0578,1.0598,1.0655,1.0679,1.0711,1.0758,1.0777,1.0822,1.0867,1.0907,1.0931,1.0971,1.1002,1.1018,1.1012,1.1008,1.1005,1.1006,1.1024,1.1022,1.1045,1.1045,1.1045,0,0,1.0437,1.0484,1.0502,1.0568,1.0605,1.0638,1.067,1.0705,1.073,1.0782,1.0822,1.0856,1.0911,1.0945,1.0963,1.0974,1.1003,1.1004,1.1001,1.1004,1.1023,1.1021,1.1019,1.1044,1.1044,1.1045,0,0,1.0424,1.0463,1.0487,1.0524,1.0579,1.0617,1.0622,1.0686,1.0711,1.0751,1.0791,1.0822,1.0889,1.0925,1.0953,1.0952,1.098,1.0963,1.0944,1.0961,1.0959,1.0958,1.0957,1.0957,1.0964,1.0964,1.0964,0,1.0397,1.0448,1.0497,1.0528,1.0556,1.0603,1.0628,1.0661,1.0727,1.0745,1.0756,1.084,1.088,1.0924,1.0923,1.0944,1.0952,1.0956,1.0956,1.0955,1.0954,1.0954,1.0954,1.0961,1.0962,1.0962,1.0962,0,1.0412,1.0447,1.046,1.0521,1.055,1.0578,1.0631,1.0655,1.0683,1.072,1.076,1.0809,1.086,1.0872,1.0902,1.092,1.0925,1.0945,1.0964,1.0949,1.095,1.095,1.0958,1.0959,1.096,1.096,0,0,1.0368,1.0455,1.0459,1.0487,1.055,1.0578,1.0608,1.0657,1.0676,1.0719,1.0746,1.08,1.0819,1.0849,1.0883,1.0898,1.0893,1.0916,1.0918,1.091,1.0916,1.09,1.09,1.0912,1.0912,1.0913,1.0911,0,1.0364,1.042,1.0463,1.0503,1.0535,1.058,1.0606,1.0648,1.0682,1.0715,1.0754,1.0791,1.0813,1.0832,1.0848,1.089,1.0895,1.0891,1.0938,1.0939,1.0923,1.09,1.0884,1.0881,1.0912,1.0912,1.0912,0,1.0368,1.0408,1.045,1.0509,1.0525,1.0547,1.0594,1.0625,1.0673,1.0697,1.0731,1.0765,1.0799,1.0814,1.0861,1.0857,1.0878,1.0901,1.0903,1.0909,1.0925,1.0906,1.0881,1.088,1.0913,1.0913,1.0913,0,1.0331,1.0396,1.0429,1.0452,1.0522,1.0537,1.0567,1.0616,1.0641,1.0683,1.07,1.0745,1.0769,1.0803,1.0849,1.0856,1.0891,1.091,1.0912,1.091,1.0918,1.0916,1.0895,1.0931,1.0931,1.0931,1.0931,0,1.0322,1.0346,1.0414,1.0434,1.0462,1.0512,1.0538,1.0572,1.0614,1.0642,1.0684,1.071,1.0768,1.0801,1.0837,1.087,1.088,1.0901,1.091,1.0897,1.0894,1.0912,1.0914,1.0931,1.0931,1.0931,1.0931,0,1.0286,1.0332,1.0371,1.0434,1.0451,1.0468,1.0522,1.0544,1.058,1.0615,1.0626,1.0683,1.0723,1.0772,1.0828,1.0852,1.0882,1.0896,1.0865,1.087,1.0869,1.0868,1.0859,1.086,1.0894,1.0894,1.0894,0,1.0277,1.0296,1.0361,1.0382,1.041,1.0444,1.0471,1.052,1.0546,1.0602,1.0616,1.0659,1.0697,1.0759,1.0805,1.0848,1.0864,1.0857,1.0871,1.0856,1.0863,1.0862,1.0864,1.0854,1.0853,1.0853,1.0852,0,1.0256,1.0278,1.0314,1.0357,1.0387,1.0424,1.0463,1.0478,1.0536,1.0562,1.0603,1.0632,1.0689,1.0731,1.0779,1.0811,1.0841,1.0848,1.085,1.0837,1.0819,1.0828,1.0855,1.0848,1.0848,1.0849,1.0849,1.0849,1.0233,1.0252,1.03,1.0338,1.0373,1.0408,1.043,1.0469,1.0504,1.0553,1.0581,1.0621,1.0668,1.0736,1.0767,1.0799,1.081,1.0814,1.0815,1.0815,1.0811,1.0813,1.0808,1.0808,1.0808,1.0809,1.0809,0,1.0214,1.0247,1.0282,1.0334,1.0364,1.0389,1.0433,1.0457,1.0491,1.0532,1.0568,1.0614,1.0655,1.0705,1.0749,1.0765,1.078,1.0775,1.0774,1.0781,1.0799,1.0792,1.0762,1.0762,1.0762,1.0762,1.0762,1.0762,1.0208,1.0241,1.0268,1.0318,1.0351,1.039,1.0413,1.0445,1.0478,1.0528,1.0562,1.0594,1.0638,1.0686,1.0724,1.0738,1.0752,1.0743,1.076,1.0776,1.078,1.0784,1.0778,1.0745,1.0745,1.074,1.074,1.074]},{"header":{"parameterUnit":"m.s-1","parameterCategory":1,"la1":30.2991,"la2":30.254,"lo1":-89.0895,"lo2":-89.0444,"dy":0.0017,"dx":0.0017,"nx":28,"ny":28,"refTime":"2024-07-03T21:00:00:Z","depth":0,"parameterNumber":3,"parameterNumberName":"V-component_of_WINDS"},"data":[0,0,0,0,0,0,0,0,0,0,0,0,0,0,0,0,0,0,0,0,0,0,0,0,0,0,0,0,0,0,0,0,0,0,0,0,0,0,0,0,0,0,0,0,0,0,0,0,0,0,0,0,0,0,0,0,0,0,3.5519,3.552,0,3.5554,3.5554,3.5555,3.5561,3.556,3.556,3.556,3.5592,3.5594,3.5595,0,0,0,0,0,0,0,0,0,0,0,0,0,3.5455,3.5456,3.5519,3.552,3.552,3.5554,3.5554,3.5555,3.5561,3.556,3.556,3.556,3.5592,3.5593,3.5595,0,0,0,0,0,0,0,0,0,0,0,0,0,3.5485,3.5456,3.5519,3.5527,3.5528,3.5554,3.5554,3.5555,3.5561,3.556,3.556,3.5559,3.5592,3.5593,3.5595,3.5614,0,0,3.56,3.5601,0,0,0,0,0,0,0,0,3.5484,3.5488,3.5526,3.5527,3.5528,3.5553,3.5544,3.5575,3.5561,3.5548,3.556,3.5559,3.5579,3.5582,3.5589,3.5616,3.5617,3.56,3.5601,3.5602,3.5603,0,0,0,0,0,0,0,3.5481,3.5486,3.5533,3.5526,3.5528,3.5528,3.5532,3.5549,3.5566,3.5549,3.555,3.5554,3.558,3.5588,3.559,3.5618,3.56,3.5602,3.5603,3.5604,3.5659,3.566,0,0,0,0,0,0,3.5478,3.5484,3.5532,3.5534,3.5504,3.5529,3.5534,3.5545,3.5566,3.5568,3.5554,3.5554,3.5585,3.5588,3.5591,3.5614,3.5602,3.5604,3.5605,3.5659,3.566,3.566,0,0,0,0,0,0,3.5477,3.5483,3.553,3.5509,3.5516,3.5531,3.5544,3.5546,3.5554,3.5569,3.5572,3.556,3.5585,3.5589,3.5608,3.5615,3.5604,3.5606,3.5658,3.5659,3.566,3.566,0,0,0,0,0,0,3.5475,3.5482,3.549,3.551,3.5517,3.5548,3.5544,3.5547,3.5557,3.5557,3.5575,3.5578,3.5585,3.5606,3.561,3.5618,3.5607,3.5658,3.5659,3.566,3.566,3.5661,3.5662,0,0,0,0,0,3.5473,3.5489,3.5491,3.5497,3.5528,3.5548,3.5552,3.5561,3.5558,3.5566,3.5575,3.5577,3.5614,3.5608,3.5612,3.5621,3.5657,3.5659,3.566,3.5659,3.5661,3.5662,0,0,0,0,0,0,3.547,3.5492,3.5494,3.5517,3.5531,3.5549,3.556,3.5563,3.5577,3.5576,3.5586,3.559,3.5608,3.5616,3.5609,3.5639,3.5635,3.5637,3.5633,3.5635,3.5636,3.5633,3.5609,0,0,0,0,0,3.5472,3.5488,3.5506,3.5524,3.5531,3.5544,3.5554,3.5559,3.5573,3.5579,3.559,3.5603,3.5617,3.5627,3.5641,3.5661,3.5664,3.5669,3.567,3.5671,3.5672,3.5682,3.5684,3.5663,3.5663,3.5663,0,0,3.5476,3.549,3.55,3.5524,3.5535,3.555,3.5549,3.5565,3.5576,3.5581,3.56,3.5608,3.5623,3.5643,3.5652,3.565,3.5679,3.5672,3.5673,3.5674,3.5683,3.5685,3.5687,3.5664,3.5664,3.5664,0,0,3.5492,3.5505,3.5521,3.5532,3.5549,3.5558,3.5562,3.5579,3.5585,3.5605,3.5608,3.562,3.5646,3.5656,3.5664,3.5682,3.5683,3.5686,3.5692,3.5701,3.5703,3.5704,3.571,3.5712,3.5688,3.5688,3.5688,0,3.5495,3.5519,3.5529,3.5545,3.5555,3.556,3.5576,3.5586,3.5607,3.5613,3.5611,3.5641,3.5652,3.5673,3.5677,3.5684,3.5688,3.5684,3.5702,3.5704,3.5705,3.571,3.5712,3.5688,3.5688,3.5688,3.5688,0,3.5521,3.5537,3.5548,3.5569,3.558,3.5596,3.5606,3.5616,3.562,3.5628,3.5647,3.566,3.5676,3.5681,3.5686,3.5703,3.5701,3.57,3.5696,3.5707,3.5712,3.5714,3.5688,3.5688,3.5688,3.5688,0,0,3.5536,3.5561,3.5565,3.5574,3.5592,3.5605,3.562,3.5636,3.5644,3.5658,3.567,3.569,3.569,3.5699,3.5704,3.5712,3.5724,3.5711,3.5711,3.5712,3.5743,3.5743,3.5745,3.5726,3.5726,3.5726,3.5741,0,3.5553,3.5582,3.559,3.5614,3.5628,3.5633,3.5646,3.5658,3.5666,3.5678,3.5686,3.57,3.5699,3.5704,3.5713,3.5721,3.573,3.572,3.5736,3.5736,3.5732,3.5748,3.5748,3.5761,3.5743,3.5744,3.5744,0,3.5577,3.5592,3.5617,3.5633,3.5639,3.5651,3.5666,3.5678,3.5691,3.5696,3.5706,3.571,3.5725,3.572,3.5739,3.5732,3.5739,3.5744,3.5744,3.5746,3.574,3.5749,3.5766,3.5768,3.5747,3.5747,3.5747,0,3.5584,3.561,3.5628,3.5635,3.5655,3.5663,3.5671,3.5684,3.5693,3.5705,3.5711,3.5725,3.5733,3.5743,3.575,3.5746,3.5768,3.5765,3.5772,3.5772,3.5776,3.5776,3.5794,3.5781,3.5781,3.5781,3.5781,0,3.5602,3.5617,3.5631,3.5642,3.5658,3.5668,3.5683,3.5691,3.5702,3.5714,3.5719,3.5729,3.5739,3.575,3.5756,3.577,3.5774,3.5777,3.5778,3.5776,3.5776,3.5781,3.578,3.5782,3.5782,3.5782,3.5781,0,3.5613,3.5624,3.5643,3.566,3.5664,3.5675,3.5689,3.5699,3.5706,3.5721,3.5725,3.5736,3.575,3.5758,3.5775,3.5779,3.5794,3.5796,3.579,3.5791,3.5797,3.5796,3.5819,3.5822,3.5808,3.5808,3.5808,0,3.5624,3.5635,3.5653,3.5661,3.567,3.5683,3.5692,3.5701,3.571,3.5726,3.5734,3.5748,3.5759,3.578,3.579,3.5802,3.5803,3.581,3.5805,3.5803,3.5802,3.5801,3.5802,3.5811,3.5811,3.5811,3.5811,0,3.5641,3.5645,3.5659,3.5674,3.5684,3.5697,3.5708,3.5715,3.5725,3.5735,3.5749,3.5758,3.5776,3.5789,3.5802,3.581,3.5812,3.5813,3.5815,3.5813,3.5809,3.581,3.5792,3.5812,3.5812,3.5812,3.5812,3.5812,3.5651,3.5661,3.5675,3.5689,3.5699,3.571,3.572,3.5729,3.5741,3.5757,3.5761,3.5775,3.5787,3.5805,3.5812,3.5823,3.5822,3.5825,3.5826,3.5827,3.5826,3.5808,3.5826,3.5826,3.5826,3.5826,3.5825,0,3.5667,3.5677,3.569,3.5707,3.5718,3.5719,3.5732,3.5741,3.5754,3.5765,3.5777,3.5792,3.5805,3.5815,3.5828,3.5834,3.5835,3.5837,3.5837,3.5838,3.5827,3.5824,3.5836,3.5836,3.5836,3.5836,3.5836,3.5836,3.5677,3.5694,3.57,3.5721,3.573,3.5745,3.5752,3.5761,3.577,3.5787,3.5798,3.5805,3.5815,3.5829,3.584,3.5842,3.5846,3.5848,3.585,3.584,3.5839,3.5838,3.5834,3.5849,3.5849,3.586,3.586,3.586]}]]